Location: Davayat
(45.9471°N, 3.1105°E)
Time: 17:49:20
(UTC+00:00)

Landsat 5 - Pass Details

Date: 01 December 2020
Orbit: 528 x 654 km, 98.2° (Epoch: 22 January)

Event Time Altitude Azimuth Distance (km) Brightness Sun altitude
Rises 16:54:04 0° 13° (NNE) 2,945 6.7 -8.6°
Reaches altitude 10° 16:56:16 10° 13° (NNE) 2,045 5.9 -8.9°
Maximum altitude 17:00:45 86° 285° (WNW) 659 3.7 -9.6°
Drops below altitude 10° 17:05:16 10° 197° (SSW) 2,057 6.8 -10.4°
Sets 17:07:29 0° 197° (SSW) 2,964 7.6 -10.7°
